Location: *
(38.4303°S, 157.0822°W)
Time: 21:39:10
(UTC+00:00)

Cosmos 1867 - Pass Details

Date: 21 May 2024
Orbit: 772 x 802 km, 65.0° (Epoch: 11 June)

Event Time Altitude Azimuth Distance (km) Brightness Sun altitude
Exits shadow 16:37:34 - 222° (SW) 2,446 5.6 -10.2°
Reaches altitude 10° 16:37:51 10° 223° (SW) 2,347 5.5 -10.1°
Maximum altitude 16:42:57 45° 294° (WNW) 1,054 3.9 -9.2°
Drops below altitude 10° 16:48:03 10° 6° (N) 2,331 6.4 -8.2°
Sets 16:50:31 0° 12° (NNE) 3,256 7.2 -7.8°
